Dewpoint
64 64 64 63 63 63 63 64 63 63 63 64 63 62 61 62 61 61 63 63 63 64 63 62 62 62 62 63 62 62 62 62 63 63 63 63 63 63 63 64 64 63 64 63 64 63 62 61 61 61 61 60 60 60 59 58 58 58 58 56 56 56 56 56 56 55 55 56 56 55 55 56 55 55 55 56 56 57 60 59 61 62 63 64 66
64 64 63 63 63 63 63 64 63 63 63 63 62 61 60 61 61 63 61 62 63 63 62 61 62 62 62 62 62 62 62 62 63 63 63 63 63 64 64 63 62 62 62 62 63 63 62 61 61 61 61 60 60 59 59 58 57 56 56 57 56 56 57 56 56 55 54 55 55 55 55 55 54 55 55 55 56 58 57 58 59 61 63 64 65
63 63 63 63 63 63 63 63 62 63 63 62 61 60 60 60 63 62 62 61 63 62 61 61 62 62 62 63 62 62 62 63 63 62 62 62 62 63 63 62 62 62 62 62 62 62 62 62 60 60 61 60 60 59 59 58 57 57 56 57 56 57 57 57 57 55 55 54 55 55 55 54 54 54 55 56 57 57 57 58 59 61 63 64 64
62 63 63 63 63 63 63 63 62 62 61 62 61 61 61 61 63 62 61 61 61 62 63 62 62 62 62 63 62 62 62 62 62 63 63 63 62 62 62 62 63 63 62 62 62 62 62 61 60 60 60 59 59 58 58 58 57 57 57 57 57 57 57 57 57 56 56 55 56 55 55 54 54 55 56 56 56 57 58 58 60 61 62 64 64
62 63 62 62 63 63 63 62 62 61 61 62 61 61 61 60 62 62 61 61 61 61 63 64 62 62 62 62 62 62 62 62 62 63 63 64 63 63 62 62 62 62 62 62 63 62 62 61 60 59 59 59 58 57 57 57 57 57 57 57 57 57 58 58 57 57 57 56 56 56 55 54 55 55 55 55 56 57 57 58 58 59 61 63 64
62 62 62 63 62 62 62 61 61 61 61 62 62 61 61 61 61 62 62 61 61 61 61 62 63 62 62 62 62 62 62 63 63 63 63 64 64 64 63 63 63 62 62 62 62 62 62 61 61 60 59 58 58 58 57 57 57 57 57 57 57 58 57 57 57 57 57 57 57 56 55 53 53 53 54 55 55 56 56 57 58 60 61 62 63
63 62 62 62 63 61 61 61 61 61 62 62 62 62 61 61 60 60 62 61 60 61 61 60 62 61 60 61 62 63 62 62 62 62 62 63 63 63 63 63 63 63 63 63 63 63 62 61 61 60 59 59 58 58 57 57 57 57 58 57 57 57 57 57 57 57 57 57 57 55 54 53 53 53 54 55 56 56 57 57 58 59 60 61 62
63 61 62 62 62 61 62 63 62 63 63 63 63 62 62 61 59 59 62 59 58 58 58 59 60 61 61 62 62 62 60 59 59 60 61 62 63 63 63 63 63 63 63 63 63 63 62 62 61 60 59 59 59 58 58 57 58 58 58 58 57 57 57 57 57 58 58 57 55 54 53 53 53 53 54 54 54 54 56 56 56 57 58 59 60
63 62 63 63 64 63 64 63 62 63 63 63 62 62 62 61 60 60 61 59 60 59 60 60 59 60 60 61 61 60 60 60 60 60 61 62 63 63 63 63 63 63 63 63 62 62 62 61 61 60 61 62 61 60 59 58 58 57 57 57 57 58 57 57 58 58 58 56 55 54 53 52 52 52 52 52 53 53 54 57 57 58 58 58 59
64 63 64 65 65 63 64 63 63 63 63 62 62 62 62 61 61 60 60 59 61 61 60 61 61 60 60 60 59 60 61 61 64 64 64 63 63 64 64 64 64 63 63 62 62 61 61 61 62 64 62 61 60 60 59 58 57 58 58 57 57 57 57 57 57 57 57 55 54 53 52 51 51 51 52 52 53 54 55 55 56 56 57 57 58
64 62 64 65 65 63 63 63 63 63 62 62 62 62 62 61 61 60 60 61 61 61 62 61 61 61 61 60 59 59 60 60 61 61 62 64 64 63 64 64 63 63 62 62 61 61 61 61 59 61 62 62 62 61 60 59 58 57 57 57 57 59 58 57 57 57 57 56 55 53 52 51 51 52 52 52 53 53 54 55 56 56 56 56 55
63 64 65 64 64 63 64 64 64 64 63 63 62 62 62 61 60 60 60 61 61 62 61 61 61 61 61 60 59 59 59 61 59 60 61 61 64 64 63 63 63 62 62 62 62 61 61 60 60 60 60 60 61 60 60 60 59 58 57 57 57 57 57 59 58 56 56 56 55 54 52 52 52 53 53 53 52 53 53 54 55 55 55 56 56
63 64 64 64 64 64 64 64 64 64 64 63 62 62 61 61 60 61 61 61 62 62 61 61 61 61 61 61 60 60 59 60 59 59 60 60 60 61 61 61 61 62 62 61 61 60 60 60 60 60 60 62 63 61 60 60 59 58 57 57 57 57 57 57 57 58 58 57 56 55 54 53 53 54 54 54 54 54 54 54 55 55 56 56 56
63 64 64 64 64 65 65 65 65 64 64 63 62 62 61 60 60 60 61 62 62 62 62 62 62 62 62 61 61 60 59 59 58 58 58 58 59 60 60 60 61 61 61 61 61 61 60 60 60 60 60 59 59 59 59 58 58 59 59 59 59 60 58 57 57 56 57 58 57 55 55 55 55 55 56 55 54 54 54 54 55 56 56 56 56
63 63 63 64 65 65 65 65 65 65 64 63 62 61 61 60 60 61 61 61 61 62 62 62 62 62 61 60 59 59 59 59 58 58 56 56 57 59 59 60 60 60 60 60 60 61 60 60 60 60 59 59 59 59 58 58 58 58 58 58 59 59 59 60 59 59 58 56 55 56 56 57 57 56 55 55 54 54 55 55 56 56 56 57 57
64 64 64 65 65 65 65 65 64 63 62 62 62 61 61 61 61 61 62 61 62 62 62 62 62 61 61 60 58 59 60 56 56 55 55 55 57 58 59 59 59 59 59 59 59 60 60 61 60 60 59 59 58 57 58 58 57 57 58 59 59 58 58 56 56 56 57 57 57 57 57 57 54 55 56 55 54 55 56 57 57 57 57 56 56
63 64 64 64 65 64 65 64 63 62 62 62 61 61 61 61 61 62 62 62 62 62 61 61 61 60 59 60 60 60 59 57 55 54 54 54 56 57 57 58 58 58 58 59 60 61 61 61 60 60 59 59 59 57 57 56 58 58 58 57 56 55 56 57 56 55 54 53 52 53 53 53 53 53 52 52 55 55 57 57 56 56 56 55 55
63 64 64 64 63 63 64 64 63 62 61 61 61 61 61 61 61 63 61 61 62 62 61 61 61 61 60 59 59 58 58 58 55 53 53 54 57 56 57 58 58 58 58 58 59 60 61 64 63 61 60 60 58 57 56 56 57 56 54 54 55 55 55 56 55 55 54 54 54 54 54 54 54 53 53 53 53 54 57 55 55 56 55 55 55
62 62 62 62 62 63 64 64 63 62 61 61 61 61 61 61 61 62 62 62 61 62 62 61 59 59 60 60 62 58 57 57 56 53 53 53 57 56 56 56 57 57 58 58 59 59 59 61 62 61 60 59 56 55 53 54 55 54 53 55 55 54 54 54 54 54 54 55 55 56 56 54 56 55 56 54 54 55 59 58 58 56 55 56 56
61 61 60 60 62 64 65 65 63 62 61 61 61 61 61 61 62 62 63 62 61 61 62 61 58 59 60 60 60 58 58 59 59 55 54 53 54 57 57 56 57 58 58 59 58 57 57 58 59 58 56 55 52 49 48 49 53 54 56 55 54 52 53 54 54 54 54 56 55 56 56 56 55 55 56 57 58 59 59 59 58 57 56 56 56
61 61 61 61 62 64 65 65 63 62 61 61 61 61 61 61 62 63 62 61 60 60 60 60 59 58 58 59 59 59 59 59 59 54 50 52 53 55 58 58 57 56 55 56 55 55 56 57 57 58 54 52 49 47 46 47 50 54 56 55 53 54 51 52 54 54 55 56 56 57 56 56 55 55 56 56 58 58 59 58 59 58 57 56 56
60 60 61 61 62 63 64 65 64 63 62 62 61 62 62 61 61 61 60 60 59 59 59 60 59 58 58 59 58 57 60 62 58 53 52 50 51 52 56 57 56 55 54 54 54 55 55 56 57 57 54 49 48 47 45 46 48 55 55 50 50 50 52 55 55 55 55 55 55 56 55 55 55 55 55 56 56 57 58 58 58 58 58 57 56
61 61 61 61 62 63 64 65 65 64 63 63 62 61 60 60 60 60 58 58 58 58 58 59 59 58 58 56 56 58 58 61 58 55 51 49 49 51 51 52 53 54 53 53 53 54 55 55 57 58 52 48 46 45 44 47 48 53 49 49 50 51 53 54 54 54 54 54 54 54 54 55 54 54 55 55 55 56 58 58 58 58 58 58 58
61 61 62 62 62 63 63 63 63 63 62 62 62 60 59 59 59 57 58 59 58 55 56 59 59 58 57 55 55 58 58 58 57 57 54 50 49 48 48 48 50 51 54 53 53 54 54 55 55 50 45 44 44 45 46 47 53 49 49 50 50 51 54 53 52 52 53 53 53 53 53 54 55 54 55 56 56 57 58 59 59 58 58 58 58
61 62 62 62 62 63 63 63 63 63 62 62 60 60 59 58 57 58 59 56 56 56 57 59 59 57 56 56 55 56 58 57 56 56 56 54 51 49 49 49 49 49 51 52 54 54 51 48 46 46 50 46 46 47 49 50 50 51 51 51 53 51 52 51 51 51 51 52 52 53 53 54 54 55 56 56 57 58 58 58 58 58 58 58 58
62 61 62 62 62 62 62 62 62 62 61 60 60 59 58 59 57 57 57 56 57 57 57 59 58 57 56 56 56 57 56 53 51 52 55 54 52 51 50 50 50 50 51 52 51 50 49 49 52 52 52 54 55 55 54 55 52 52 52 52 51 51 51 51 50 50 50 51 52 52 52 53 54 55 56 56 56 56 57 58 57 58 58 57 57
62 62 62 62 62 61 61 62 62 61 59 59 60 60 59 58 58 58 58 58 58 58 59 59 58 56 56 56 57 58 55 50 49 49 48 50 50 51 50 51 51 50 51 50 50 50 52 55 53 52 51 52 53 53 53 53 52 52 50 51 52 50 51 50 50 49 51 51 51 51 52 53 54 55 54 55 55 56 57 58 56 57 58 58 57
62 61 60 60 61 61 61 64 61 58 58 58 58 57 57 57 58 58 59 58 58 57 58 58 57 57 56 55 56 58 54 50 49 47 46 48 49 49 49 51 49 48 48 48 48 50 52 55 53 55 53 51 51 49 50 50 51 51 49 50 51 51 50 50 49 49 50 51 51 51 52 52 52 53 54 54 54 55 57 57 57 56 57 57 57
62 61 61 59 59 62 62 61 57 56 53 51 49 49 50 54 54 51 51 50 53 56 56 55 55 54 54 52 55 57 54 51 49 47 48 47 47 48 49 49 48 48 49 46 48 51 50 50 50 50 49 49 48 47 46 46 48 48 47 47 48 47 48 48 47 47 48 50 49 50 50 51 51 52 53 53 54 55 56 56 57 56 55 55 55
63 62 60 59 59 61 61 59 57 55 52 51 51 49 48 42 45 52 50 49 46 45 50 52 53 50 47 47 49 50 50 49 43 41 39 39 39 40 41 40 39 43 43 44 46 49 48 47 47 48 48 47 46 45 44 44 44 44 44 46 48 47 47 47 46 47 48 49 49 49 49 50 50 51 51 52 53 54 54 54 56 57 55 54 54
62 61 60 59 60 61 60 59 57 54 53 52 52 51 50 49 41 41 44 45 43 40 42 45 47 48 52 47 48 46 44 42 40 39 39 39 38 38 38 38 39 39 40 46 49 47 46 46 45 46 46 45 45 44 43 43 44 43 42 43 44 45 46 46 45 46 48 48 48 48 49 49 49 50 50 52 52 53 54 55 55 56 56 55 54
62 61 60 60 61 61 58 58 58 54 53 53 52 52 51 50 50 44 41 41 41 40 40 41 43 44 46 48 46 48 45 42 40 39 39 39 39 38 38 38 38 37 42 46 47 45 45 44 44 43 44 42 42 42 42 42 43 41 41 41 41 43 43 44 44 45 47 47 47 47 47 48 49 49 50 51 51 52 52 53 53 54 55 56 56
59 58 59 61 61 62 58 59 59 55 54 53 53 52 51 51 50 49 48 43 40 39 39 39 39 39 39 40 42 42 41 40 40 39 39 39 38 38 38 39 39 41 43 44 44 45 44 44 43 43 43 43 41 42 43 43 42 42 41 42 40 40 41 41 43 45 46 46 46 46 47 47 48 49 49 50 51 50 51 51 52 53 53 53 55
59 59 59 60 60 59 59 59 59 57 55 54 53 52 53 52 51 50 49 49 49 46 42 39 38 40 38 37 39 39 38 39 39 39 39 39 38 39 40 44 41 41 43 44 43 43 44 43 45 44 43 44 44 45 43 43 44 42 42 40 40 40 40 40 40 42 44 45 44 45 46 46 47 47 48 49 50 50 50 50 51 51 51 52 53
61 65 64 64 59 59 58 58 58 58 57 55 55 55 55 54 54 52 51 51 50 49 48 49 43 38 44 44 42 38 35 36 38 39 39 40 39 39 43 46 45 44 44 45 45 43 44 44 43 44 43 43 43 43 41 40 42 42 42 39 38 39 40 39 40 40 41 41 42 43 45 45 45 46 47 48 49 49 49 49 50 51 51 51 52
61 61 62 64 61 59 58 58 58 59 59 58 57 56 57 56 55 54 52 54 53 51 49 47 47 48 41 39 39 36 35 36 37 39 39 39 40 43 45 44 44 45 46 45 45 45 45 43 43 42 42 41 42 40 39 39 40 39 41 37 38 38 38 39 40 40 40 40 41 42 42 42 42 44 45 47 49 49 49 49 49 50 51 51 51
59 60 60 60 60 60 59 58 57 58 59 59 59 59 58 57 57 55 54 54 53 52 49 49 49 49 48 51 49 42 38 38 38 39 40 42 42 46 45 44 43 44 45 44 45 43 41 40 41 40 41 41 40 40 39 37 38 37 40 36 35 36 37 39 39 40 39 39 39 39 40 40 39 40 43 44 47 48 48 48 48 49 50 50 50
60 60 60 60 60 58 58 58 58 60 58 58 58 59 59 57 57 56 55 54 54 53 50 50 51 49 49 49 51 50 50 45 44 46 43 41 43 44 44 45 45 43 43 43 43 41 40 39 39 39 40 40 39 37 36 35 34 35 36 34 35 36 37 38 40 37 40 38 38 39 40 40 39 39 41 41 43 45 46 47 47 47 48 50 50
59 59 60 60 60 58 58 58 58 58 57 56 56 57 57 57 57 56 55 55 55 53 52 50 50 50 49 48 45 48 48 48 48 46 45 45 44 43 43 43 44 43 43 43 45 43 41 41 42 41 41 39 38 35 32 33 34 34 35 33 31 32 33 34 35 36 38 37 37 38 39 40 39 38 40 39 39 41 42 44 45 45 46 47 48
57 59 60 59 59 59 59 60 58 57 58 56 55 56 57 56 55 54 55 55 54 53 51 50 49 49 47 46 47 45 47 47 46 46 45 44 44 43 43 42 42 42 42 41 42 42 41 39 40 39 38 37 35 33 33 31 31 34 34 34 31 31 32 33 35 35 36 37 37 37 38 39 40 38 39 40 39 39 39 41 41 43 45 46 47
57 59 62 59 59 59 60 59 57 57 56 56 55 55 54 55 54 54 52 53 53 52 50 49 48 47 47 45 44 43 46 47 46 47 46 44 44 42 41 41 42 41 42 42 41 42 41 40 39 38 37 36 33 32 30 29 31 30 33 34 31 33 33 34 34 35 35 36 36 37 37 38 40 37 38 40 41 39 39 40 40 38 40 41 43
58 57 57 58 59 59 59 58 56 57 56 56 54 54 55 55 53 52 52 52 53 51 49 48 46 47 44 42 40 40 44 47 47 46 46 45 45 42 43 41 40 40 39 38 39 42 42 40 40 38 36 35 34 32 29 26 27 27 30 33 31 31 33 33 34 34 35 34 35 36 37 39 41 39 38 41 38 37 37 38 39 38 38 38 40
59 58 58 59 57 57 56 55 54 53 53 54 55 56 55 53 52 53 53 52 51 50 48 47 46 47 45 43 43 42 44 45 50 46 45 45 43 44 42 40 40 40 41 40 41 42 40 38 37 36 35 33 31 29 25 26 27 25 27 30 32 30 29 32 32 33 34 34 34 37 37 38 40 38 38 40 38 38 37 37 38 38 37 37 38
58 58 57 57 57 56 55 54 53 54 54 56 56 55 56 54 54 54 53 52 51 50 48 47 47 46 45 43 43 42 43 44 43 43 45 44 43 44 41 40 40 40 40 40 39 40 38 36 36 35 34 31 30 29 27 27 26 26 26 25 30 32 28 29 30 30 32 33 33 35 36 38 41 38 39 39 38 38 37 38 38 38 37 36 37
56 57 56 55 54 54 53 53 54 54 56 55 54 54 55 52 53 53 53 52 53 49 48 48 47 46 46 44 43 43 44 43 45 46 45 44 45 44 42 40 41 40 39 40 38 38 38 37 35 33 33 31 31 30 29 30 29 27 27 27 26 26 26 27 28 30 33 33 32 33 36 37 38 38 39 37 38 38 37 38 38 40 37 37 37
56 56 56 55 54 54 53 52 55 53 53 51 51 51 51 50 51 52 53 52 52 50 48 47 46 45 45 43 44 46 44 42 43 43 44 44 43 43 43 41 41 41 40 38 38 38 38 36 34 32 30 30 30 29 30 31 31 30 29 29 28 29 28 29 30 33 32 31 32 33 35 38 38 39 41 38 36 37 37 38 38 38 37 38 37
54 55 55 55 54 53 53 52 52 51 51 51 51 50 50 49 49 50 53 49 50 50 48 47 46 45 45 44 45 46 45 44 43 43 43 43 43 41 42 41 41 40 39 39 39 39 39 37 34 32 31 30 29 28 27 27 27 29 29 29 28 29 30 31 32 32 30 32 34 33 34 37 38 37 39 39 37 36 37 37 38 38 37 38 36
55 55 54 54 54 53 53 52 53 55 51 52 50 51 50 50 49 49 47 49 49 49 48 47 46 45 46 45 46 45 45 44 44 45 44 43 41 40 40 39 39 37 39 39 38 39 39 37 34 33 32 32 31 29 29 27 27 26 25 26 28 29 30 33 31 29 30 31 33 34 35 36 34 35 37 37 35 36 36 36 37 37 38 38 37
54 53 54 54 55 54 53 53 54 52 52 51 50 51 50 49 49 49 47 47 46 46 45 46 45 45 45 44 46 45 46 47 43 43 43 43 41 39 39 39 40 37 36 35 35 38 38 37 35 33 31 30 30 30 29 31 28 28 27 26 29 32 31 32 31 30 33 33 33 34 36 35 33 35 37 36 35 35 36 37 36 38 37 38 37
49 53 53 53 54 54 54 53 52 51 51 50 49 49 49 48 47 48 47 46 45 45 44 45 45 44 43 44 46 45 46 46 44 43 42 41 39 38 39 39 38 37 36 35 35 36 36 34 32 31 31 30 31 32 32 32 30 28 28 27 31 31 30 31 32 32 32 31 32 34 36 35 33 33 34 35 33 35 36 37 38 38 37 36 36
49 47 47 46 47 49 49 50 49 48 48 48 47 46 47 47 46 46 47 45 44 44 45 44 43 44 43 43 46 45 45 42 42 41 41 37 36 36 37 37 39 39 37 37 36 35 35 33 31 32 33 35 34 33 31 30 29 27 29 31 30 31 30 30 28 29 32 34 33 36 37 36 34 34 36 37 33 34 39 38 38 37 37 37 37